WZZ1578 LHBP-LIMC

Flight info

Callsign WZZ1578
Flight time 1h 23m
Altitude 38000
Route GILEP DCT ZOLKU DCT SUNIS DCT DETSA/N0449F390 DCT NAXAV DCT RENTA DCT ATPED DCT LUSIL DCT EVRIP
Aircraft A20N/M-SDE2E3FGHIRWXY/LB1

Departure

Time 2026-05-07 18:32
Airport Budapest Liszt Ferenc International Airport (LHBP)

Arrival

Time 2026-05-07 19:56
Airport Milan Malpensa International Airport (LIMC)
Time Latitude Longitude Altitude Speed Heading
2026-05-07 17:59 47.43299 19.25704 472 ft 0 kts 39°
2026-05-07 18:22 47.43285 19.25688 472 ft 3 kts 39°
2026-05-07 18:22 47.43268 19.25667 475 ft 3 kts 39°
2026-05-07 18:23 47.43250 19.25650 474 ft 3 kts 16°
2026-05-07 18:23 47.43228 19.25645 481 ft 3 kts 354°
2026-05-07 18:23 47.43207 19.25654 472 ft 3 kts 325°
2026-05-07 18:23 47.43201 19.25661 472 ft 0 kts 316°
2026-05-07 18:28 47.43209 19.25648 473 ft 4 kts 313°
2026-05-07 18:28 47.43242 19.25593 473 ft 10 kts 311°
2026-05-07 18:28 47.43301 19.25497 482 ft 15 kts 312°
2026-05-07 18:28 47.43332 19.25379 482 ft 13 kts 238°
2026-05-07 18:29 47.43253 19.25264 479 ft 19 kts 222°
2026-05-07 18:29 47.43155 19.25135 481 ft 13 kts 222°
2026-05-07 18:29 47.43147 19.25124 484 ft 0 kts 222°
2026-05-07 18:30 47.43145 19.25122 484 ft 1 kts 222°
2026-05-07 18:30 47.43120 19.25088 489 ft 9 kts 224°
2026-05-07 18:30 47.43083 19.24984 482 ft 14 kts 281°
2026-05-07 18:31 47.43125 19.24896 484 ft 0 kts 312°
2026-05-07 18:31 47.43139 19.24873 486 ft 7 kts 312°
2026-05-07 18:31 47.43187 19.24795 484 ft 13 kts 312°
2026-05-07 18:31 47.43336 19.24556 477 ft 63 kts 312°
2026-05-07 18:32 47.43777 19.23843 488 ft 121 kts 312°
2026-05-07 18:32 47.44450 19.22764 523 ft 161 kts 314°
2026-05-07 18:32 47.45222 19.21557 1062 ft 161 kts 312°
2026-05-07 18:32 47.45963 19.20356 1776 ft 155 kts 310°
2026-05-07 18:33 47.46684 19.19178 2388 ft 157 kts 310°
2026-05-07 18:33 47.47463 19.17900 2750 ft 177 kts 310°
2026-05-07 18:33 47.48314 19.16447 3141 ft 197 kts 301°
2026-05-07 18:33 47.48703 19.14458 3502 ft 217 kts 265°
2026-05-07 18:34 47.48408 19.12175 4010 ft 237 kts 249°
2026-05-07 18:34 47.47596 19.09975 4632 ft 253 kts 230°
2026-05-07 18:34 47.46307 19.08181 5549 ft 257 kts 217°
2026-05-07 18:34 47.44792 19.06750 6409 ft 261 kts 210°
2026-05-07 18:35 47.43161 19.05506 7089 ft 264 kts 207°
2026-05-07 18:35 47.41491 19.04340 7784 ft 267 kts 206°
2026-05-07 18:35 47.39793 19.03176 8511 ft 271 kts 206°
2026-05-07 18:35 47.38074 19.01986 9417 ft 274 kts 206°
2026-05-07 18:36 47.36345 19.00777 10298 ft 278 kts 206°
2026-05-07 18:36 47.34563 18.99521 10725 ft 298 kts 207°
2026-05-07 18:36 47.32606 18.98089 11056 ft 319 kts 212°
2026-05-07 18:36 47.30945 18.95976 11741 ft 323 kts 231°
2026-05-07 18:37 47.29862 18.93092 12656 ft 324 kts 251°
2026-05-07 18:37 47.29557 18.89790 13530 ft 330 kts 271°
2026-05-07 18:37 47.30119 18.86487 14264 ft 341 kts 291°
2026-05-07 18:37 47.31322 18.83422 14894 ft 350 kts 297°
2026-05-07 18:38 47.32637 18.80353 15564 ft 356 kts 298°
2026-05-07 18:38 47.33971 18.77255 16221 ft 361 kts 298°
2026-05-07 18:38 47.35313 18.74113 16861 ft 366 kts 297°
2026-05-07 18:38 47.36673 18.70896 17514 ft 371 kts 297°
2026-05-07 18:39 47.38043 18.67633 18148 ft 376 kts 297°
2026-05-07 18:39 47.39422 18.64336 18739 ft 380 kts 297°
2026-05-07 18:39 47.40787 18.60979 19368 ft 381 kts 293°
2026-05-07 18:39 47.41884 18.57449 20033 ft 378 kts 286°
2026-05-07 18:40 47.42686 18.53760 20607 ft 379 kts 282°
2026-05-07 18:40 47.43442 18.50009 21186 ft 382 kts 282°
2026-05-07 18:40 47.44213 18.46224 21783 ft 385 kts 282°
2026-05-07 18:40 47.44991 18.42413 22351 ft 389 kts 282°
2026-05-07 18:41 47.45772 18.38583 22920 ft 392 kts 282°
2026-05-07 18:41 47.46552 18.34745 23480 ft 395 kts 282°
2026-05-07 18:41 47.47352 18.30796 23979 ft 398 kts 282°
2026-05-07 18:41 47.48139 18.26906 24457 ft 400 kts 281°
2026-05-07 18:42 47.48837 18.22925 24921 ft 401 kts 278°
2026-05-07 18:42 47.49496 18.18915 25519 ft 400 kts 278°
2026-05-07 18:42 47.50161 18.14899 25976 ft 403 kts 278°
2026-05-07 18:42 47.50829 18.10853 26399 ft 406 kts 278°
2026-05-07 18:43 47.51499 18.06790 26830 ft 408 kts 278°
2026-05-07 18:43 47.52173 18.02686 27244 ft 411 kts 278°
2026-05-07 18:43 47.52848 17.98565 27644 ft 414 kts 278°
2026-05-07 18:43 47.53525 17.94421 28035 ft 416 kts 277°
2026-05-07 18:44 47.54205 17.90245 28422 ft 418 kts 277°
2026-05-07 18:44 47.54847 17.86038 28794 ft 417 kts 273°
2026-05-07 18:44 47.55031 17.81790 29183 ft 411 kts 262°
2026-05-07 18:44 47.54655 17.77629 29504 ft 407 kts 252°
2026-05-07 18:45 47.53759 17.73686 29878 ft 404 kts 244°
2026-05-07 18:45 47.52675 17.69832 30220 ft 406 kts 244°
2026-05-07 18:45 47.51599 17.65962 30537 ft 408 kts 244°
2026-05-07 18:45 47.50522 17.62081 30840 ft 409 kts 244°
2026-05-07 18:46 47.49438 17.58180 31165 ft 410 kts 244°
2026-05-07 18:46 47.48352 17.54284 31550 ft 410 kts 244°
2026-05-07 18:46 47.47277 17.50436 31959 ft 409 kts 244°
2026-05-07 18:46 47.46180 17.46517 32385 ft 407 kts 244°
2026-05-07 18:47 47.45112 17.42709 32785 ft 406 kts 244°
2026-05-07 18:47 47.44030 17.38857 33179 ft 404 kts 244°
2026-05-07 18:47 47.42955 17.35039 33562 ft 403 kts 244°
2026-05-07 18:47 47.41877 17.31217 33888 ft 402 kts 244°
2026-05-07 18:48 47.40799 17.27407 33999 ft 403 kts 245°
2026-05-07 18:48 47.38635 17.19772 34002 ft 403 kts 245°
2026-05-07 18:49 47.36469 17.12139 34007 ft 403 kts 245°
2026-05-07 18:49 47.34319 17.04581 34011 ft 398 kts 245°
2026-05-07 18:50 47.32167 16.97047 34019 ft 399 kts 245°
2026-05-07 18:50 47.30007 16.89509 34021 ft 399 kts 245°
2026-05-07 18:51 47.27861 16.82038 34021 ft 399 kts 245°
2026-05-07 18:51 47.25691 16.74515 34034 ft 399 kts 245°
2026-05-07 18:52 47.23516 16.66993 34032 ft 399 kts 245°
2026-05-07 18:52 47.21342 16.59491 34031 ft 397 kts 245°
2026-05-07 18:53 47.19178 16.52049 34030 ft 396 kts 245°
2026-05-07 18:53 47.16998 16.44581 34164 ft 399 kts 245°
2026-05-07 18:53 47.15917 16.40883 34405 ft 399 kts 245°
2026-05-07 18:54 47.14932 16.37062 34658 ft 400 kts 251°
2026-05-07 18:54 47.14217 16.33101 34889 ft 402 kts 256°
2026-05-07 18:54 47.13774 16.29040 35105 ft 404 kts 261°
2026-05-07 18:54 47.13512 16.24931 35330 ft 405 kts 261°
2026-05-07 18:55 47.13245 16.20817 35548 ft 405 kts 261°
2026-05-07 18:55 47.12973 16.16691 35753 ft 406 kts 261°
2026-05-07 18:55 47.12697 16.12546 35972 ft 406 kts 261°
2026-05-07 18:55 47.12420 16.08412 36184 ft 406 kts 261°
2026-05-07 18:56 47.12144 16.04328 36382 ft 407 kts 261°
2026-05-07 18:56 47.11859 16.00143 36584 ft 407 kts 261°
2026-05-07 18:56 47.11576 15.95998 36783 ft 407 kts 261°
2026-05-07 18:56 47.11294 15.91911 36977 ft 408 kts 261°
2026-05-07 18:57 47.11007 15.87763 37154 ft 407 kts 261°
2026-05-07 18:57 47.10719 15.83620 37363 ft 407 kts 261°
2026-05-07 18:57 47.10429 15.79480 37478 ft 409 kts 262°
2026-05-07 18:58 47.09840 15.71140 37726 ft 411 kts 262°
2026-05-07 18:58 47.09544 15.66970 37896 ft 411 kts 261°
2026-05-07 18:58 47.09245 15.62786 38024 ft 411 kts 261°
2026-05-07 18:59 47.08650 15.54508 38023 ft 410 kts 261°
2026-05-07 18:59 47.08045 15.46193 38020 ft 410 kts 261°
2026-05-07 19:00 47.07539 15.39307 38015 ft 410 kts 261°
2026-05-07 19:00 47.06813 15.29530 38024 ft 415 kts 262°
2026-05-07 19:01 47.06187 15.21167 38030 ft 414 kts 261°
2026-05-07 19:01 47.05553 15.12805 38034 ft 414 kts 261°
2026-05-07 19:02 47.04915 15.04451 38040 ft 414 kts 261°
2026-05-07 19:02 47.04267 14.96062 38046 ft 414 kts 261°
2026-05-07 19:03 47.03610 14.87651 38039 ft 415 kts 262°
2026-05-07 19:03 47.02950 14.79262 38052 ft 412 kts 262°
2026-05-07 19:04 47.02287 14.70910 38059 ft 413 kts 262°
2026-05-07 19:04 47.01615 14.62547 38048 ft 413 kts 262°
2026-05-07 19:05 47.00944 14.54250 38052 ft 413 kts 261°
2026-05-07 19:05 47.00261 14.45897 38050 ft 414 kts 262°
2026-05-07 19:06 46.99567 14.37486 38054 ft 416 kts 262°
2026-05-07 19:06 46.98520 14.24915 38054 ft 415 kts 262°
2026-05-07 19:07 46.97816 14.16563 38050 ft 415 kts 262°
2026-05-07 19:07 46.97103 14.08195 38050 ft 415 kts 261°
2026-05-07 19:08 46.96383 13.99807 38057 ft 414 kts 262°
2026-05-07 19:08 46.95781 13.92858 38061 ft 413 kts 262°
2026-05-07 19:09 46.95053 13.84513 38050 ft 411 kts 262°
2026-05-07 19:09 46.94324 13.76218 38056 ft 412 kts 261°
2026-05-07 19:10 46.93587 13.67908 38056 ft 411 kts 261°
2026-05-07 19:10 46.92842 13.59593 38068 ft 412 kts 261°
2026-05-07 19:11 46.92095 13.51316 38051 ft 413 kts 261°
2026-05-07 19:11 46.91336 13.42970 38051 ft 414 kts 261°
2026-05-07 19:12 46.90571 13.34628 38050 ft 412 kts 261°
2026-05-07 19:12 46.89802 13.26310 38051 ft 413 kts 261°
2026-05-07 19:13 46.89025 13.17974 38055 ft 412 kts 261°
2026-05-07 19:13 46.88244 13.09651 38048 ft 414 kts 261°
2026-05-07 19:14 46.87458 13.01364 38048 ft 413 kts 261°
2026-05-07 19:14 46.86663 12.93032 38050 ft 414 kts 261°
2026-05-07 19:15 46.85864 12.84728 38045 ft 409 kts 261°
2026-05-07 19:15 46.85066 12.76484 38050 ft 411 kts 261°
2026-05-07 19:16 46.84259 12.68231 38052 ft 409 kts 261°
2026-05-07 19:16 46.83451 12.60032 38058 ft 410 kts 261°
2026-05-07 19:17 46.82635 12.51801 38072 ft 410 kts 261°
2026-05-07 19:17 46.81808 12.43522 38086 ft 409 kts 261°
2026-05-07 19:18 46.80958 12.35371 38093 ft 409 kts 258°
2026-05-07 19:18 46.79498 12.27354 38111 ft 410 kts 251°
2026-05-07 19:19 46.77306 12.19647 38102 ft 412 kts 244°
2026-05-07 19:19 46.74705 12.12223 38034 ft 411 kts 244°
2026-05-07 19:20 46.72149 12.04876 38025 ft 406 kts 244°
2026-05-07 19:20 46.69579 11.97526 38027 ft 408 kts 244°
2026-05-07 19:21 46.66991 11.90160 38025 ft 407 kts 244°
2026-05-07 19:21 46.64406 11.82824 38024 ft 408 kts 244°
2026-05-07 19:22 46.61810 11.75476 38018 ft 407 kts 244°
2026-05-07 19:22 46.59215 11.68149 38007 ft 408 kts 244°
2026-05-07 19:23 46.56661 11.60960 37994 ft 405 kts 244°
2026-05-07 19:23 46.54079 11.53708 37984 ft 407 kts 244°
2026-05-07 19:24 46.51500 11.46487 37969 ft 407 kts 244°
2026-05-07 19:24 46.48933 11.39321 37705 ft 407 kts 244°
2026-05-07 19:25 46.47629 11.35696 37451 ft 405 kts 244°
2026-05-07 19:25 46.46325 11.32069 37186 ft 404 kts 244°
2026-05-07 19:25 46.45053 11.28450 36921 ft 404 kts 245°
2026-05-07 19:25 46.43805 11.24793 36744 ft 403 kts 245°
2026-05-07 19:26 46.42568 11.21152 36485 ft 401 kts 245°
2026-05-07 19:26 46.41331 11.17527 36223 ft 402 kts 245°
2026-05-07 19:26 46.40091 11.13909 36024 ft 401 kts 245°
2026-05-07 19:26 46.38846 11.10289 35774 ft 400 kts 245°
2026-05-07 19:27 46.37616 11.06724 35535 ft 400 kts 245°
2026-05-07 19:27 46.36370 11.03121 35290 ft 400 kts 245°
2026-05-07 19:27 46.35122 10.99519 35056 ft 400 kts 245°
2026-05-07 19:27 46.33874 10.95922 34807 ft 399 kts 245°
2026-05-07 19:28 46.32650 10.92397 34572 ft 398 kts 245°
2026-05-07 19:28 46.31404 10.88815 34340 ft 398 kts 245°
2026-05-07 19:28 46.30158 10.85234 34090 ft 398 kts 246°
2026-05-07 19:28 46.28913 10.81649 33820 ft 400 kts 246°
2026-05-07 19:29 46.27675 10.78082 33553 ft 402 kts 245°
2026-05-07 19:29 46.26405 10.74425 33271 ft 402 kts 245°
2026-05-07 19:29 46.25148 10.70814 32993 ft 402 kts 245°
2026-05-07 19:29 46.23907 10.67255 32750 ft 402 kts 245°
2026-05-07 19:30 46.22643 10.63636 32469 ft 404 kts 245°
2026-05-07 19:30 46.21375 10.60011 32203 ft 405 kts 245°
2026-05-07 19:30 46.20100 10.56370 31937 ft 406 kts 245°
2026-05-07 19:30 46.18824 10.52731 31688 ft 408 kts 245°
2026-05-07 19:31 46.17542 10.49082 31430 ft 408 kts 245°
2026-05-07 19:31 46.16254 10.45421 30961 ft 409 kts 246°
2026-05-07 19:31 46.14966 10.41759 30199 ft 411 kts 245°
2026-05-07 19:31 46.13676 10.38102 29709 ft 405 kts 245°
2026-05-07 19:32 46.12410 10.34521 29192 ft 398 kts 245°
2026-05-07 19:32 46.11159 10.30983 28673 ft 392 kts 245°
2026-05-07 19:32 46.09931 10.27519 28152 ft 384 kts 245°
2026-05-07 19:32 46.08728 10.24125 27670 ft 378 kts 245°
2026-05-07 19:33 46.07542 10.20785 27189 ft 372 kts 245°
2026-05-07 19:33 46.06383 10.17522 26690 ft 368 kts 245°
2026-05-07 19:33 46.05225 10.14263 26225 ft 364 kts 245°
2026-05-07 19:33 46.04068 10.11010 25755 ft 373 kts 245°
2026-05-07 19:34 46.02881 10.07547 25236 ft 394 kts 246°
2026-05-07 19:34 46.01684 10.03950 24733 ft 401 kts 246°
2026-05-07 19:34 46.00479 10.00322 24189 ft 401 kts 246°
2026-05-07 19:34 45.99275 9.96715 23659 ft 398 kts 245°
2026-05-07 19:35 45.98085 9.93172 23094 ft 393 kts 245°
2026-05-07 19:35 45.96920 9.89717 22588 ft 386 kts 245°
2026-05-07 19:35 45.95757 9.86274 22066 ft 379 kts 245°
2026-05-07 19:35 45.94613 9.82894 21572 ft 374 kts 245°
2026-05-07 19:36 45.93482 9.79556 21084 ft 368 kts 245°
2026-05-07 19:36 45.92371 9.76282 20588 ft 363 kts 245°
2026-05-07 19:36 45.91271 9.73044 20113 ft 358 kts 245°
2026-05-07 19:36 45.90183 9.69841 19635 ft 354 kts 245°
2026-05-07 19:37 45.89105 9.66675 19160 ft 351 kts 245°
2026-05-07 19:37 45.88034 9.63535 18686 ft 348 kts 245°
2026-05-07 19:37 45.86977 9.60439 18206 ft 343 kts 244°
2026-05-07 19:37 45.85933 9.57381 17727 ft 340 kts 244°
2026-05-07 19:38 45.84911 9.54396 17285 ft 335 kts 244°
2026-05-07 19:38 45.83874 9.51371 16825 ft 332 kts 244°
2026-05-07 19:38 45.82875 9.48465 16387 ft 328 kts 244°
2026-05-07 19:38 45.81848 9.45481 15932 ft 346 kts 244°
2026-05-07 19:39 45.80758 9.42309 15523 ft 359 kts 244°
2026-05-07 19:39 45.79664 9.39135 15429 ft 351 kts 244°
2026-05-07 19:39 45.78597 9.36049 15327 ft 338 kts 244°
2026-05-07 19:39 45.77520 9.33124 15118 ft 328 kts 237°
2026-05-07 19:40 45.75921 9.30766 14341 ft 338 kts 216°
2026-05-07 19:40 45.73850 9.29044 13385 ft 350 kts 208°
2026-05-07 19:40 45.71631 9.27494 12652 ft 354 kts 207°
2026-05-07 19:40 45.69461 9.25984 12444 ft 338 kts 208°
2026-05-07 19:41 45.67431 9.24515 12245 ft 318 kts 208°
2026-05-07 19:41 45.65541 9.23098 12044 ft 300 kts 209°
2026-05-07 19:41 45.63729 9.21709 11557 ft 294 kts 210°
2026-05-07 19:41 45.61939 9.20319 11139 ft 290 kts 210°
2026-05-07 19:42 45.60212 9.18975 10885 ft 277 kts 209°
2026-05-07 19:42 45.58532 9.17669 10399 ft 273 kts 210°
2026-05-07 19:42 45.56899 9.16397 9915 ft 270 kts 209°
2026-05-07 19:42 45.55274 9.15133 9411 ft 267 kts 209°
2026-05-07 19:43 45.53649 9.13872 8878 ft 265 kts 208°
2026-05-07 19:43 45.52034 9.12622 8372 ft 263 kts 209°
2026-05-07 19:43 45.50419 9.11372 7861 ft 262 kts 208°
2026-05-07 19:43 45.48824 9.10139 7365 ft 261 kts 209°
2026-05-07 19:44 45.47231 9.08908 6871 ft 259 kts 208°
2026-05-07 19:44 45.45651 9.07687 6392 ft 258 kts 208°
2026-05-07 19:44 45.44072 9.06468 5877 ft 257 kts 208°
2026-05-07 19:44 45.42505 9.05259 5367 ft 255 kts 208°
2026-05-07 19:45 45.40949 9.04059 4871 ft 254 kts 208°
2026-05-07 19:45 45.39416 9.02876 4350 ft 253 kts 208°
2026-05-07 19:45 45.37889 9.01701 4062 ft 244 kts 208°
2026-05-07 19:45 45.36390 9.00548 3980 ft 249 kts 208°
2026-05-07 19:46 45.34871 8.99381 3975 ft 246 kts 208°
2026-05-07 19:46 45.33364 8.98222 4002 ft 246 kts 208°
2026-05-07 19:46 45.31857 8.97067 4005 ft 246 kts 207°
2026-05-07 19:46 45.30235 8.96379 4014 ft 245 kts 185°
2026-05-07 19:47 45.28597 8.95790 4011 ft 240 kts 210°
2026-05-07 19:47 45.27453 8.94224 3986 ft 223 kts 242°
2026-05-07 19:47 45.27108 8.92092 4012 ft 228 kts 275°
2026-05-07 19:47 45.27483 8.89917 4018 ft 226 kts 287°
2026-05-07 19:48 45.27905 8.87783 4012 ft 224 kts 285°
2026-05-07 19:48 45.28273 8.85625 4014 ft 225 kts 283°
2026-05-07 19:48 45.28733 8.83520 4021 ft 224 kts 301°
2026-05-07 19:48 45.29840 8.82001 4025 ft 224 kts 335°
2026-05-07 19:49 45.31321 8.81362 4026 ft 224 kts 349°
2026-05-07 19:49 45.32862 8.80991 4026 ft 223 kts 356°
2026-05-07 19:49 45.34419 8.80933 4026 ft 224 kts 358°
2026-05-07 19:49 45.35969 8.80749 4024 ft 223 kts 353°
2026-05-07 19:50 45.37508 8.80397 4021 ft 223 kts 349°
2026-05-07 19:50 45.39028 8.79980 4020 ft 223 kts 349°
2026-05-07 19:50 45.40536 8.79566 4029 ft 223 kts 349°
2026-05-07 19:50 45.42078 8.79142 4019 ft 218 kts 349°
2026-05-07 19:51 45.43488 8.78753 3992 ft 202 kts 349°
2026-05-07 19:51 45.44828 8.78384 4026 ft 188 kts 349°
2026-05-07 19:51 45.46074 8.78040 3826 ft 177 kts 348°
2026-05-07 19:51 45.47241 8.77719 3574 ft 165 kts 349°
2026-05-07 19:52 45.48318 8.77421 3358 ft 151 kts 349°
2026-05-07 19:52 45.49299 8.77150 3159 ft 140 kts 349°
2026-05-07 19:52 45.50263 8.76884 2960 ft 143 kts 348°
2026-05-07 19:52 45.51234 8.76618 2782 ft 141 kts 349°
2026-05-07 19:53 45.52198 8.76354 2589 ft 142 kts 348°
2026-05-07 19:53 45.53159 8.76063 2421 ft 141 kts 347°
2026-05-07 19:53 45.54121 8.75782 2222 ft 141 kts 348°
2026-05-07 19:53 45.55075 8.75526 1986 ft 140 kts 349°
2026-05-07 19:54 45.56045 8.75257 1787 ft 141 kts 348°
2026-05-07 19:54 45.56994 8.75012 1631 ft 140 kts 349°
2026-05-07 19:54 45.57953 8.74757 1442 ft 141 kts 348°
2026-05-07 19:54 45.58898 8.74510 1275 ft 138 kts 349°
2026-05-07 19:55 45.59842 8.74238 1084 ft 135 kts 348°
2026-05-07 19:55 45.60752 8.73977 914 ft 133 kts 348°
2026-05-07 19:55 45.61658 8.73727 749 ft 133 kts 349°
2026-05-07 19:55 45.62503 8.73493 726 ft 102 kts 349°
2026-05-07 19:56 45.62962 8.73369 730 ft 36 kts 347°
2026-05-07 19:56 45.63174 8.73201 737 ft 33 kts 321°
2026-05-07 19:56 45.63306 8.72973 742 ft 24 kts 304°
2026-05-07 19:56 45.63326 8.72931 741 ft 0 kts 304°
2026-05-07 19:58 45.63330 8.72923 742 ft 2 kts 304°
2026-05-07 19:58 45.63343 8.72897 742 ft 4 kts 303°
2026-05-07 19:58 45.63364 8.72852 743 ft 6 kts 303°
2026-05-07 19:58 45.63391 8.72791 742 ft 8 kts 297°
2026-05-07 19:59 45.63403 8.72737 744 ft 9 kts 285°
2026-05-07 19:59 45.63408 8.72639 746 ft 11 kts 262°
2026-05-07 19:59 45.63394 8.72525 745 ft 13 kts 259°
2026-05-07 19:59 45.63369 8.72339 746 ft 16 kts 259°
2026-05-07 20:00 45.63355 8.72227 747 ft 18 kts 259°
2026-05-07 20:00 45.63330 8.72048 744 ft 20 kts 258°
2026-05-07 20:00 45.63301 8.71845 744 ft 22 kts 258°
2026-05-07 20:00 45.63263 8.71667 744 ft 13 kts 227°
2026-05-07 20:01 45.63196 8.71554 745 ft 14 kts 212°
2026-05-07 20:01 45.63170 8.71551 745 ft 0 kts 168°